Location: Bannatyne
(13.0833°N, 59.5333°W)
Time: 14:56:46
(UTC+00:00)

deb Explorer IX - Pass Details

Date: 30 January 2020
Orbit: 549 x 1099 km, 38.8° (Epoch: 22 February)

Event Time Altitude Azimuth Distance (km) Brightness Sun altitude
Rises 22:33:04 0° 268° (W) 3,217 ? -9.0°
Reaches altitude 10° 22:35:58 10° 284° (WNW) 2,394 ? -9.7°
Maximum altitude 22:40:15 21° 333° (NNW) 1,863 ? -10.7°
Drops below altitude 10° 22:45:00 10° 21° (NNE) 2,684 ? -11.8°
Enters shadow 22:46:58 - 30° (NNE) 3,251 ? -12.2°
Sets 22:48:30 0° 36° (NE) 3,724 - -12.6°
